{"data":{"norad_id":53649,"epoch":"2026-05-25T04:00:03.998880Z","epoch_age_seconds":60520,"freshness":"FRESH","line1":"1 53649U 22105B   26145.16671295  .00086677  00000+0  25041-2 0  9999","line2":"2 53649  97.6032  28.0883 0002184  98.9046 194.1461 15.35314319  5811","mean_motion":15.35314319,"eccentricity":0.0002184,"inclination_deg":97.6032,"raan_deg":28.0883,"arg_perigee_deg":98.9046,"mean_anomaly_deg":194.1461,"bstar":0.0025041,"rev_number":581,"period_min":93.791869337734,"perigee_km":458.49359389556,"apogee_km":461.48048647632,"semimajor_km":6838.1240401859,"source":"CELESTRAK","updated_at":"2026-05-25T13:38:17.484129Z"}}